GFSWCAN_850_thetae_000.txt.gz
Theta_e
308 308 308 308 308 308 307 307 307 308 312 315 316 316 315 314 315 316 319 320 322 322 321 320 319 319 318 318 312 318 314 316 305 305 302 302 301 307 308 309 309 309 305 302 299 299 306 306 310 310 311 311 312 313
308 308 308 309 308 308 308 307 307 308 310 315 316 318 317 315 318 318 319 322 321 322 320 320 320 320 319 319 319 319 317 316 314 305 297 303 306 307 302 309 307 309 306 305 304 305 306 309 310 313 312 311 312 313
308 308 308 309 308 308 308 307 307 307 308 312 315 318 318 318 317 316 319 320 321 320 319 320 320 319 319 319 320 319 314 317 315 312 305 298 303 301 306 306 307 308 306 305 307 309 308 311 311 312 312 312 313 313
308 308 308 309 309 308 308 308 307 307 307 308 312 316 319 318 318 318 319 319 320 319 316 318 319 320 318 318 318 318 318 315 314 314 308 303 300 305 299 304 304 307 308 308 306 309 311 312 313 313 314 314 313 313
308 308 309 309 309 308 308 308 308 307 307 307 309 312 318 317 318 319 318 317 318 316 314 317 318 319 320 320 320 320 319 317 316 313 302 304 305 303 303 302 304 309 308 306 307 311 310 310 312 313 313 314 314 313
308 309 309 309 309 309 309 308 308 308 308 308 307 308 313 316 316 316 316 316 315 314 317 310 316 317 317 318 319 319 319 318 318 318 313 311 310 309 307 306 312 312 312 312 311 312 313 314 314 314 314 313 313 313
309 309 309 309 310 309 309 309 308 308 308 308 308 308 308 309 310 310 311 316 316 314 314 311 311 317 318 317 318 319 319 319 318 316 312 311 312 311 305 304 313 313 313 313 313 313 313 313 313 313 313 313 312 311
309 309 309 310 310 309 309 309 309 308 308 308 308 308 308 308 309 311 312 314 316 313 315 304 303 315 316 318 319 317 319 318 316 312 310 307 308 307 309 309 313 313 314 314 314 314 313 313 313 312 312 311 307 298
310 310 310 310 311 310 310 309 309 309 309 308 308 308 308 308 309 313 314 313 313 313 312 306 307 309 314 313 313 314 314 305 309 310 308 309 304 309 308 306 309 311 311 311 312 312 312 312 309 305 304 299 299 299
309 310 310 310 310 311 310 310 310 310 309 309 309 310 310 311 312 312 312 313 315 315 315 304 307 307 310 311 309 310 309 306 311 307 309 306 308 306 303 304 306 309 310 311 310 308 306 303 301 298 299 299 299 298
305 306 307 309 309 310 310 310 310 310 310 310 310 310 312 313 311 311 309 307 308 309 309 307 308 306 308 307 306 307 304 303 309 305 310 307 307 300 299 302 303 305 306 306 306 304 301 300 299 300 299 298 297 297
303 304 306 307 308 308 309 310 310 310 310 310 311 312 311 311 310 305 303 305 306 307 307 308 308 309 309 310 306 306 306 303 309 304 307 307 299 297 301 303 304 304 303 303 303 302 300 300 299 297 298 297 295 293
303 303 304 306 307 307 309 309 309 310 311 311 311 310 309 306 308 308 309 307 306 303 305 306 305 307 308 308 305 303 307 307 303 306 307 302 299 302 302 302 301 301 301 300 300 297 296 294 293 295 295 295 292 291
301 301 302 303 305 306 307 309 309 310 310 309 307 305 303 304 301 300 301 301 300 301 303 304 303 305 304 304 301 306 302 301 306 303 299 301 300 300 298 298 298 299 300 296 294 295 294 293 292 291 291 291 291 291
300 300 301 301 302 304 306 308 308 307 304 302 301 300 298 297 298 298 299 300 300 301 302 303 302 303 300 302 300 300 300 300 297 295 300 300 300 299 295 295 295 295 294 296 295 296 295 293 292 292 292 292 292 292
299 299 300 300 301 302 304 305 305 302 300 298 298 298 297 299 298 298 299 300 300 301 302 302 300 301 300 300 299 298 298 297 299 299 300 300 300 299 299 298 297 297 296 295 296 294 293 293 293 293 292 293 293 293
298 299 299 299 299 301 302 303 300 299 297 297 297 298 298 299 299 299 300 300 300 301 299 298 299 299 297 297 300 300 300 299 300 300 298 298 299 298 298 297 297 296 294 293 294 294 294 293 293 293 292 291 291 291
295 295 296 297 299 299 299 299 299 296 297 297 297 298 298 299 299 300 299 300 300 299 300 296 297 293 292 295 294 297 299 299 299 298 299 300 299 297 296 296 296 296 295 294 294 294 293 292 292 292 292 292 292 292
291 292 292 294 297 298 299 298 297 295 296 296 297 298 298 298 298 298 298 298 299 299 299 299 290 292 292 299 299 299 298 299 298 298 298 298 296 296 296 296 296 295 294 294 293 292 292 292 292 292 291 290 289 288
291 291 291 291 294 297 298 298 297 296 296 295 296 297 296 296 297 297 297 297 298 299 299 292 291 298 299 297 296 298 300 299 299 299 297 296 296 296 295 295 294 294 293 292 292 291 291 291 290 288 287 286 285 285
291 291 291 291 292 295 297 297 297 296 295 295 295 295 295 295 294 295 296 297 297 298 297 298 299 299 298 297 297 297 297 298 298 297 297 295 294 294 294 293 292 292 291 290 290 290 288 286 285 284 284 283 283 283
291 291 291 291 292 294 295 295 296 295 295 295 295 295 294 294 294 294 295 296 296 296 297 297 297 297 297 297 297 297 297 297 296 294 293 293 293 292 291 290 290 289 288 287 285 284 284 283 282 282 281 281 281 281
291 291 291 291 292 293 292 294 295 295 294 294 294 295 294 294 294 294 294 294 294 294 295 296 297 297 297 297 296 295 295 294 294 292 291 291 290 289 289 289 288 287 285 283 282 282 281 281 280 280 279 279 279 279
291 292 291 292 292 291 292 292 293 293 293 292 287 291 291 293 293 293 291 292 292 293 294 294 295 295 293 292 293 292 291 290 290 290 290 289 289 288 286 284 283 282 282 281 280 279 279 278 277 277 277 277 277 277
291 290 290 289 291 292 288 289 290 291 291 282 291 284 291 291 289 289 290 290 290 291 292 292 292 292 292 289 288 288 289 289 288 288 286 285 284 282 282 281 281 280 279 279 278 278 277 276 276 275 275 275 275 275
286 291 290 289 290 290 283 284 286 291 288 286 286 291 291 286 284 288 287 287 287 287 288 290 290 289 288 287 287 286 286 286 285 283 282 281 281 281 280 279 278 277 277 276 276 276 275 275 275 275 275 274 274 273
287 286 291 291 291 292 291 292 291 289 288 290 288 288 289 289 288 286 285 285 286 286 286 287 287 287 287 286 286 285 283 282 281 281 280 280 279 278 276 276 276 275 275 275 275 274 274 274 273 273 273 272 272 272
292 291 287 291 291 292 292 290 286 290 291 290 290 289 289 287 284 282 282 283 284 284 285 285 285 284 284 283 283 282 281 280 279 278 277 276 276 275 275 274 274 274 274 273 273 273 273 272 272 272 271 271 271 271
292 291 291 291 292 292 290 290 290 290 290 291 289 286 282 281 281 281 281 282 282 282 283 282 282 281 281 281 280 279 278 277 276 276 275 275 275 275 274 274 274 273 273 273 273 272 272 271 271 271 271 271 271 270
290 290 291 291 288 286 289 289 290 290 290 289 288 284 281 279 280 280 280 280 280 281 280 280 279 279 278 278 277 276 276 276 275 275 275 274 274 273 273 273 273 273 273 272 272 272 272 271 271 271 270 270 270 270
290 291 291 290 289 289 289 289 288 289 289 288 287 285 280 278 278 278 278 278 278 278 278 278 277 277 276 276 275 275 275 275 274 273 273 273 273 272 272 272 271 271 271 271 271 271 271 271 270 270 270 269 269 269
290 289 289 283 289 288 288 288 288 288 287 287 284 282 280 278 277 276 275 275 276 276 276 275 275 275 275 274 274 274 273 273 272 272 272 271 271 270 270 270 270 270 270 270 270 270 270 270 269 269 269 269 268 268
288 288 287 288 287 288 287 286 284 285 285 282 280 279 279 278 275 274 274 274 274 274 274 274 274 274 274 273 273 272 271 271 271 270 270 270 269 270 270 270 270 270 270 269 269 269 269 269 268 268 268 268 268 267

GFSWCAN_850_thetae_003.txt.gz
Theta_e
307 308 307 307 306 306 307 307 307 309 311 314 316 317 315 314 315 317 318 319 320 321 317 318 318 318 317 318 316 316 316 316 308 311 312 310 312 311 311 310 311 313 312 310 303 308 313 305 310 314 314 312 311 312
307 306 307 307 307 307 307 308 309 313 314 315 316 316 315 314 315 316 317 318 320 321 319 319 319 319 319 319 319 317 317 315 314 310 305 305 310 307 306 316 308 313 311 312 309 312 307 308 311 312 312 312 312 311
307 308 308 307 307 307 307 308 310 313 315 317 316 315 314 314 316 317 317 319 320 319 318 320 319 318 318 319 320 318 314 317 315 312 305 304 309 305 312 311 309 309 305 310 309 310 307 309 311 311 311 311 312 312
308 308 308 308 307 307 307 307 308 310 313 317 319 316 314 315 316 316 318 320 320 320 316 318 319 319 319 319 318 319 320 317 315 312 307 305 309 304 306 308 309 309 308 309 309 309 310 311 311 311 312 312 313 313
308 308 308 308 308 307 307 307 307 308 312 317 318 319 318 318 317 315 317 319 319 318 314 318 319 319 319 319 318 318 317 315 314 312 306 309 303 305 303 304 308 308 310 312 314 312 310 311 312 313 314 313 313 313
309 309 308 308 308 308 308 307 307 307 308 316 318 318 318 319 317 319 317 316 316 319 319 312 316 318 319 318 319 318 317 317 317 317 312 309 308 309 309 311 311 312 312 312 311 311 311 312 313 313 313 313 313 313
309 309 308 308 308 308 308 307 308 307 307 308 315 317 317 317 315 314 316 316 314 314 315 310 311 317 318 319 319 319 319 318 317 315 309 307 308 309 305 311 311 311 312 312 312 312 312 313 313 313 313 313 313 311
309 309 309 309 309 308 309 308 308 307 307 307 308 308 309 310 310 314 317 316 314 313 313 306 305 315 316 317 316 316 318 317 315 310 307 305 306 307 311 308 307 309 311 312 312 312 311 312 312 312 310 308 307 300
309 309 309 310 310 309 309 309 308 308 308 308 308 308 309 309 311 314 314 314 312 311 311 306 308 310 314 312 312 312 312 308 309 308 307 309 305 309 303 301 303 305 306 309 309 310 310 308 307 303 302 300 300 298
310 310 310 312 311 310 310 309 309 309 309 309 309 310 310 313 313 313 311 312 312 314 314 303 305 307 310 310 307 309 309 305 310 308 309 307 308 299 298 300 302 304 306 308 307 303 301 299 299 298 297 298 299 297
309 309 310 310 311 312 310 310 310 309 309 309 310 312 313 312 310 310 308 307 308 306 308 307 307 308 308 309 307 307 304 304 310 307 310 309 306 298 300 301 301 302 303 303 302 301 299 299 299 298 298 298 298 296
307 308 308 309 310 311 311 310 310 310 310 311 312 312 310 311 310 305 304 305 303 305 306 308 308 309 308 309 306 305 307 305 310 304 307 309 298 299 300 301 301 302 302 301 301 300 300 299 299 298 297 296 296 295
304 306 307 307 308 309 310 310 311 311 311 311 311 310 309 305 305 302 309 307 306 303 305 306 304 307 308 308 305 304 309 309 304 307 308 301 297 299 300 300 300 300 300 298 297 297 296 296 297 296 296 294 293 291
301 303 306 308 308 309 309 309 310 311 311 310 307 303 302 305 302 302 303 302 300 302 304 306 304 305 304 304 302 309 302 302 307 308 304 299 299 299 299 298 298 298 296 295 295 294 293 292 292 291 291 291 291 291
300 301 302 304 305 306 309 310 309 307 307 303 302 300 299 297 298 298 299 300 300 302 304 304 303 304 301 302 300 302 303 303 301 301 301 299 297 296 296 295 295 295 295 296 296 296 294 293 293 293 293 293 293 293
299 300 300 302 303 305 305 305 306 304 300 298 298 298 298 299 298 299 300 300 301 302 302 303 300 302 301 301 302 302 302 300 300 299 299 299 299 298 297 297 297 298 296 296 295 293 294 294 294 293 293 292 292 292
299 298 299 300 302 303 305 303 300 298 297 298 298 298 299 299 299 299 300 300 301 301 300 299 302 300 298 299 300 300 300 299 299 300 300 299 299 298 297 298 299 296 294 294 294 294 294 294 294 293 292 292 292 292
296 295 298 299 299 301 300 299 298 297 296 297 297 297 298 299 299 299 299 300 300 299 299 297 297 297 295 296 298 298 298 300 300 299 299 299 299 298 296 295 295 295 295 295 294 294 293 293 292 292 291 290 288 287
291 291 293 297 298 298 299 298 297 295 296 297 297 298 298 298 298 298 298 299 299 299 299 298 292 295 296 296 296 298 299 299 298 298 298 297 296 296 296 296 296 295 294 294 293 293 292 292 290 287 286 285 285 284
291 291 291 292 294 298 298 297 297 296 295 295 296 296 296 296 297 298 298 298 298 298 298 293 293 295 296 297 298 298 298 298 298 298 296 295 295 295 295 295 294 294 293 293 291 290 288 286 285 284 284 283 282 282
291 291 291 291 292 296 296 296 296 295 295 295 295 295 295 295 294 295 296 297 297 298 296 297 296 297 296 297 297 297 297 297 297 297 296 294 293 294 293 292 292 291 289 288 288 286 285 284 283 282 282 281 280 279
290 291 291 291 292 294 295 295 295 294 294 294 295 294 294 294 294 294 295 296 296 295 296 296 296 295 296 297 297 297 297 297 296 295 294 293 292 291 290 289 288 288 287 285 283 283 282 281 280 279 278 278 277 277
291 291 290 291 293 293 292 294 294 294 289 293 294 293 294 294 294 293 294 294 293 293 294 294 295 294 294 293 293 294 293 292 292 292 291 290 289 288 288 286 284 283 282 282 281 280 279 278 277 277 277 276 276 276
291 290 290 291 292 288 291 291 291 291 292 290 289 286 288 293 293 293 289 292 291 292 293 293 293 292 290 289 290 290 289 289 289 289 289 288 287 286 283 282 282 282 281 279 278 277 277 277 276 276 275 275 275 275
291 289 290 289 291 290 288 288 290 291 291 290 288 283 289 291 286 283 284 288 287 288 289 289 289 289 288 287 286 286 286 287 287 287 286 285 283 282 281 281 279 278 278 277 277 277 276 275 275 275 274 274 274 274
283 290 289 289 289 289 285 285 288 290 290 285 285 288 289 287 285 286 285 284 285 286 286 287 288 287 287 286 286 286 286 285 284 283 282 281 280 280 278 277 277 276 276 276 276 275 275 274 274 274 274 274 273 273
284 290 290 290 290 290 289 289 288 287 285 284 286 287 285 289 287 284 284 284 284 285 285 286 286 286 286 285 284 284 283 282 281 281 280 279 277 277 276 275 275 275 274 274 274 274 274 273 273 273 273 272 272 271
290 290 288 290 291 291 290 287 283 288 289 290 290 286 287 286 286 281 281 282 283 283 284 284 285 284 283 283 282 282 281 280 278 277 276 276 275 275 274 274 273 273 273 273 273 273 272 272 272 272 271 271 271 270
291 291 291 290 291 291 289 289 289 290 290 290 287 283 282 281 280 280 281 281 281 282 282 282 282 281 280 280 279 278 277 276 276 275 275 275 274 274 273 273 273 273 272 272 272 272 272 271 271 271 270 270 270 270
290 290 291 290 287 285 289 289 289 289 289 289 287 284 281 279 279 280 280 280 280 280 280 279 279 279 278 277 276 275 275 275 274 274 274 274 273 272 272 272 271 271 271 271 271 271 271 271 270 270 269 269 269 269
290 291 291 290 289 289 289 289 289 289 288 288 286 284 280 278 277 277 278 278 278 278 278 278 277 277 275 275 275 274 274 274 273 273 272 272 271 271 270 270 271 271 271 271 270 270 270 270 270 269 269 269 268 268
290 289 288 281 289 288 288 288 288 288 287 285 283 282 279 278 277 276 275 275 276 276 276 275 275 275 274 274 274 273 273 272 272 271 271 270 270 270 270 271 270 270 270 270 269 269 269 269 269 268 268 268 268 267
288 287 286 286 286 286 286 285 283 283 284 281 279 278 277 277 275 274 274 274 275 274 274 274 273 274 273 273 273 272 271 270 270 270 270 270 270 270 270 270 270 269 269 269 269 269 268 268 268 268 267 267 267 266

GFSWCAN_850_thetae_006.txt.gz
Theta_e
298 299 304 304 304 308 308 307 307 308 310 311 312 314 314 314 315 319 319 319 320 322 318 316 317 319 319 322 326 319 320 319 319 326 330 324 327 319 318 316 318 319 321 321 314 323 323 310 313 318 316 316 315 315
301 303 307 306 306 307 306 307 308 309 310 312 314 315 315 314 316 318 319 319 318 322 321 317 316 317 319 321 322 319 323 321 322 324 321 319 318 313 319 323 313 319 318 319 317 318 313 311 315 315 313 314 314 314
305 305 307 306 306 307 307 308 309 310 312 314 316 316 315 314 317 318 320 320 319 319 319 320 320 318 318 319 320 321 318 319 317 318 317 319 320 318 320 321 318 315 311 316 315 315 313 312 312 312 312 313 313 313
307 307 307 308 309 310 311 313 314 315 315 315 316 316 314 313 316 317 319 317 317 320 319 320 318 318 318 319 319 319 320 318 316 314 317 314 322 313 319 317 319 316 313 316 315 314 314 313 313 313 313 314 314 314
308 308 308 308 309 309 310 311 313 316 317 316 316 315 314 314 315 318 317 317 319 319 320 320 318 318 319 319 318 318 318 317 316 316 315 323 312 314 310 313 318 313 316 317 318 314 315 314 313 313 313 314 314 314
308 308 307 307 307 307 308 313 317 318 318 317 314 314 314 314 317 317 317 317 319 318 319 324 317 316 316 316 315 316 315 315 315 319 316 312 309 316 316 320 316 313 312 312 314 312 312 313 313 313 314 312 311 310
308 308 308 308 307 307 307 309 317 318 319 319 318 315 314 316 317 316 317 317 317 317 317 320 319 317 316 317 317 317 317 317 319 316 313 315 313 314 311 321 313 310 310 312 312 313 315 312 311 309 309 307 305 302
308 308 308 308 308 307 307 307 310 311 315 316 317 317 317 317 315 316 316 315 314 313 314 318 316 318 317 316 314 316 317 317 313 310 308 311 309 312 318 312 307 307 308 311 307 309 310 304 305 303 303 302 301 299
309 309 309 309 308 308 310 308 309 309 310 311 312 313 314 315 315 316 314 312 311 311 316 316 320 320 313 310 310 311 312 313 309 311 311 313 310 315 305 303 304 304 304 305 303 303 302 303 300 300 300 299 298 298
310 310 310 310 309 311 309 309 308 309 309 309 310 310 311 314 314 312 311 311 311 312 313 307 307 312 311 309 308 311 310 311 315 312 308 313 310 300 299 300 301 302 303 307 307 303 300 299 299 298 299 298 298 298
310 311 312 311 310 311 310 309 309 309 309 310 311 313 313 311 310 310 309 312 312 313 308 306 308 311 308 313 311 307 309 310 313 314 313 313 309 301 300 300 302 303 304 303 302 301 300 300 299 299 299 298 296 296
310 310 311 311 311 310 311 310 310 309 309 311 312 311 310 310 310 308 308 308 311 312 306 309 307 308 308 309 310 308 311 308 313 308 312 313 302 299 300 301 302 301 301 300 300 299 299 298 298 297 297 296 295 293
307 308 309 310 311 311 311 311 311 311 311 311 311 309 309 306 309 315 310 309 309 304 305 306 306 307 308 308 306 311 315 313 307 311 311 305 299 299 300 300 300 298 299 298 298 296 295 294 294 293 292 291 291 292
305 306 308 309 309 310 310 310 311 311 311 310 307 308 307 309 306 303 306 305 300 302 305 306 304 307 305 307 305 316 304 304 309 311 309 300 299 299 299 299 299 298 295 295 294 294 293 292 292 292 292 293 293 293
302 303 306 307 309 309 310 310 310 310 309 303 302 304 302 297 298 299 299 300 301 302 305 306 305 305 304 306 303 304 307 309 308 308 303 299 299 299 299 297 297 296 296 295 296 295 293 293 293 293 292 292 292 292
301 303 304 305 306 306 308 308 310 309 301 299 298 300 298 300 299 299 300 300 301 302 303 304 302 305 303 305 307 308 309 308 305 301 299 298 297 298 296 295 297 297 295 296 295 293 294 294 294 293 293 292 292 291
301 300 302 302 304 305 303 303 300 298 298 298 298 298 299 299 299 299 299 300 300 301 301 301 307 304 302 305 305 304 305 303 299 298 298 298 298 298 297 298 298 297 295 294 294 294 294 294 293 292 292 291 289 287
298 298 299 300 300 300 300 299 298 298 297 297 298 297 297 298 298 298 298 299 300 300 300 301 300 303 305 305 304 301 298 299 299 299 298 298 299 297 296 295 294 294 294 295 294 293 293 292 291 289 288 287 285 284
291 293 297 299 300 298 298 297 297 297 296 296 297 297 297 297 297 298 298 298 298 299 299 299 304 303 303 301 299 298 297 298 298 298 297 297 295 295 295 295 295 295 294 293 292 291 290 288 287 285 284 283 282 281
291 291 292 294 295 297 297 296 296 296 296 295 296 295 295 295 296 297 297 298 298 299 300 301 300 298 298 296 296 298 298 298 297 296 293 294 294 294 295 295 294 293 292 291 289 288 287 285 284 282 281 280 280 279
292 291 292 292 294 296 294 294 295 294 295 294 294 295 294 294 294 295 295 296 297 298 299 294 294 295 295 295 296 297 297 297 297 297 294 293 294 294 292 292 290 289 288 288 287 285 283 282 281 280 279 278 278 277
291 291 291 291 293 294 294 293 294 294 295 295 295 295 296 296 296 295 294 297 296 294 294 294 294 294 294 295 295 296 296 296 297 296 294 292 290 291 290 289 288 287 285 283 282 281 280 279 278 278 277 277 276 276
291 290 290 291 291 292 292 293 294 292 295 294 294 295 296 295 294 293 295 295 292 291 292 292 293 293 292 291 291 291 291 291 292 292 291 290 289 288 287 286 284 282 281 280 279 278 278 277 277 277 276 276 276 275
290 290 290 291 291 290 291 291 291 292 293 293 293 295 295 293 292 294 294 292 288 288 289 289 289 289 288 288 288 287 288 289 289 288 288 287 287 285 283 282 281 279 278 278 277 277 276 276 276 276 275 275 274 273
291 290 290 290 290 290 290 291 291 293 293 292 292 294 293 291 294 292 291 288 287 286 286 287 288 288 287 286 286 286 286 286 286 287 285 284 282 281 280 279 278 278 277 277 276 276 276 275 275 274 274 273 273 273
291 290 291 290 290 292 290 292 291 292 292 292 292 290 290 292 292 290 287 285 284 284 285 285 286 286 285 285 284 284 284 283 282 283 281 281 280 278 277 277 276 276 276 275 275 275 274 274 273 273 273 271 271 272
291 291 290 290 290 290 291 289 289 291 292 292 293 292 292 292 291 287 283 282 283 284 284 285 285 285 284 284 283 283 282 281 281 281 279 278 277 277 276 276 275 275 274 274 273 273 273 272 272 272 272 271 270 271
290 290 291 290 290 290 291 291 292 292 293 291 291 292 292 291 289 281 279 281 282 283 283 283 283 283 282 282 281 280 280 279 278 277 276 276 276 276 275 274 274 273 272 272 272 271 271 271 271 271 271 271 270 270
291 290 290 289 289 290 290 291 291 290 289 290 292 290 284 279 280 280 280 280 280 280 281 281 281 280 280 280 279 278 277 276 275 275 275 274 274 273 273 272 271 271 271 271 271 271 271 271 271 271 270 270 270 269
291 290 291 288 289 291 290 289 289 289 288 288 287 283 280 278 278 279 279 279 279 279 279 279 278 278 277 276 275 275 275 275 274 274 273 273 272 271 271 271 270 271 271 271 271 271 270 270 270 270 269 269 269 268
290 290 291 290 290 289 288 288 288 288 287 286 284 282 277 276 276 276 277 277 277 277 277 277 276 275 275 274 274 273 273 273 273 272 272 271 270 270 270 270 271 271 270 270 270 270 270 269 269 269 269 268 268 268
288 287 286 289 289 287 287 287 287 285 284 283 280 280 278 276 275 274 274 275 275 275 275 274 274 274 273 273 273 273 272 272 271 271 270 270 270 270 270 270 270 270 270 269 269 269 269 269 268 268 268 267 267 267
286 286 285 285 286 286 285 285 282 282 281 280 276 277 276 276 274 273 273 273 274 273 273 273 273 273 273 272 272 272 271 271 270 270 269 270 270 270 270 269 269 269 269 269 268 268 268 268 268 267 267 266 266 266

GFSWCAN_850_thetae_009.txt.gz
Theta_e
295 295 294 294 297 300 300 301 302 304 303 304 307 311 310 312 315 316 324 317 317 317 319 317 316 317 317 319 329 324 323 323 324 328 331 326 330 324 322 321 322 321 323 325 322 322 324 313 315 318 319 316 315 315
296 297 298 300 300 300 301 304 305 304 307 311 310 310 312 313 315 318 323 316 318 318 324 320 321 319 319 320 323 322 323 324 324 327 328 329 324 320 325 324 319 322 321 322 319 320 316 314 315 315 315 315 315 314
297 298 300 300 301 301 303 308 308 309 308 309 311 312 313 314 315 319 324 319 323 324 322 321 321 318 319 318 324 324 325 325 324 326 326 328 325 324 324 325 323 319 316 318 317 316 315 315 314 314 314 314 315 315
301 303 305 305 307 306 307 307 307 308 309 310 312 313 313 314 315 320 324 320 320 322 323 323 320 320 317 318 320 324 325 322 322 323 325 319 325 320 326 323 321 319 317 317 317 316 314 315 315 315 315 315 316 316
306 306 307 307 308 308 308 308 308 309 311 312 313 314 314 315 316 320 320 318 319 320 322 323 320 318 318 318 320 319 321 320 321 322 319 326 319 320 318 319 320 317 316 319 318 316 317 316 316 316 316 316 316 315
308 309 310 311 311 312 313 314 314 313 313 314 315 315 315 315 316 320 319 318 318 319 323 325 320 318 319 320 320 321 322 322 322 323 323 319 316 320 321 320 317 316 316 315 316 316 315 316 315 312 310 309 307 306
308 308 308 310 314 317 316 316 317 316 316 316 316 316 315 314 316 320 318 318 316 319 319 323 324 318 318 320 319 321 321 322 322 321 322 320 318 318 318 320 316 313 312 314 313 315 317 311 310 307 306 305 304 303
309 309 308 309 311 314 316 318 318 318 316 315 316 316 315 315 317 316 316 317 317 318 320 322 322 322 318 320 321 318 321 321 318 316 315 319 315 319 322 315 311 310 311 312 309 311 309 306 305 304 304 303 302 299
308 310 312 312 313 313 313 314 317 317 315 315 315 315 316 316 316 315 314 316 317 316 321 321 321 323 316 313 314 316 319 320 314 314 316 318 313 319 312 310 309 308 309 310 307 306 305 303 302 301 300 299 299 298
309 310 309 309 310 312 311 310 311 313 315 315 316 316 316 315 314 314 313 314 317 317 314 312 315 318 317 312 312 314 312 316 318 314 313 316 316 306 305 305 306 307 308 309 307 305 304 303 301 299 299 298 298 299
311 311 311 310 309 309 310 309 309 310 311 311 311 312 313 315 314 311 313 317 316 317 310 310 312 316 312 315 310 310 313 314 317 317 315 316 313 306 304 304 304 304 305 304 304 303 301 300 300 298 299 299 298 296
311 312 311 311 310 310 309 309 309 310 311 312 312 311 310 310 311 313 311 311 314 314 307 310 309 310 309 313 312 311 312 311 316 312 316 314 306 302 301 301 303 303 302 301 301 300 300 299 299 297 296 293 292 291
310 311 312 311 311 311 310 310 311 311 311 311 311 309 311 308 314 312 313 312 310 306 305 308 309 309 309 310 309 312 312 317 311 315 314 309 302 299 300 300 301 301 301 300 299 297 295 294 293 292 292 292 292 293
309 309 310 311 311 310 311 311 311 311 311 310 308 309 310 310 306 305 306 305 301 303 306 307 305 309 307 309 308 314 306 310 313 314 312 304 300 300 300 300 300 299 297 296 295 294 293 292 293 293 293 292 292 292
306 308 309 310 310 310 310 311 311 311 310 304 304 306 303 298 298 299 299 300 301 303 305 308 308 310 307 309 306 308 308 313 312 311 304 300 299 299 300 301 299 296 295 297 296 294 293 293 293 293 292 292 292 292
304 305 306 307 308 309 310 310 311 309 301 299 299 301 299 301 300 299 300 299 301 303 305 306 306 309 307 308 310 312 313 313 307 302 299 299 299 300 299 297 298 297 296 297 295 293 294 294 294 293 292 292 291 290
303 303 303 304 303 305 305 307 303 300 299 299 299 298 299 299 298 297 299 299 301 302 302 303 309 306 304 308 308 307 308 304 299 298 299 299 299 298 297 297 296 296 296 295 293 294 294 294 293 292 290 289 287 286
299 299 300 299 300 301 300 299 299 299 299 298 299 297 297 298 298 297 298 299 301 301 301 303 301 305 308 308 307 303 299 298 299 299 298 299 299 299 299 298 296 295 294 294 295 294 293 291 288 287 286 286 284 284
294 298 300 300 298 298 298 297 299 298 297 296 297 297 297 297 297 297 298 299 299 300 301 302 306 305 304 302 300 298 298 298 298 297 296 296 296 296 295 294 293 295 294 292 290 289 288 288 286 285 284 282 281 281
292 292 294 295 296 297 296 296 297 298 298 296 296 296 296 296 296 296 297 298 300 301 301 302 299 296 295 294 296 298 298 298 298 296 294 293 293 293 292 292 292 292 290 290 288 286 285 284 282 281 281 279 279 279
292 292 292 293 294 295 295 296 296 296 296 296 295 297 297 296 296 296 297 298 299 299 298 295 294 293 292 292 293 296 297 298 298 297 295 292 291 290 291 289 288 287 286 285 284 283 282 281 280 279 278 278 277 277
291 291 291 292 292 294 295 295 296 295 296 296 296 297 297 297 296 296 297 298 295 293 292 292 292 292 291 292 292 292 292 294 295 295 293 290 288 287 286 285 285 285 284 283 282 281 280 279 279 278 277 276 276 276
291 290 291 291 292 293 293 294 294 294 296 295 296 296 296 296 295 295 296 295 291 290 290 290 290 289 289 288 289 289 289 289 288 287 286 286 286 286 285 285 284 283 281 281 279 279 278 277 276 276 275 275 275 275
291 291 291 292 293 292 292 292 293 294 295 294 295 296 294 294 294 295 294 291 289 288 289 289 289 288 287 287 286 286 286 287 287 286 285 286 286 286 285 284 282 280 279 278 278 277 276 275 275 274 273 273 273 273
292 291 292 293 293 293 294 294 294 295 294 294 295 295 294 293 295 293 292 289 287 286 286 286 287 287 286 284 285 285 286 286 286 286 284 284 283 282 280 279 278 278 277 277 276 275 275 274 274 273 272 272 272 271
293 291 292 292 293 294 293 294 294 293 293 294 293 293 293 294 294 292 289 286 285 283 283 284 285 285 283 283 282 283 284 284 283 283 282 281 279 278 277 277 276 275 276 276 275 274 273 273 272 272 271 271 271 270
292 292 291 291 291 291 292 292 292 293 294 294 294 293 294 295 293 288 285 282 282 282 283 284 283 282 281 281 282 282 282 282 281 281 279 277 277 276 276 275 275 275 274 274 273 273 272 272 271 270 269 270 270 269
291 292 292 291 292 292 293 293 294 294 294 292 293 293 293 292 289 283 281 279 281 282 282 282 282 282 281 281 280 279 279 278 277 276 276 276 276 276 276 275 275 274 273 272 272 272 272 271 269 268 269 268 268 267
292 291 291 291 292 292 291 292 292 291 290 291 293 292 287 280 278 279 278 279 279 279 279 279 280 280 279 279 278 277 276 276 275 275 275 275 274 273 274 273 272 272 272 272 271 271 270 270 270 269 269 269 267 266
291 290 292 291 292 292 290 290 290 288 287 287 285 283 280 277 276 277 277 277 278 278 278 278 278 277 276 275 274 275 275 275 275 274 273 273 272 272 271 270 270 270 271 270 270 270 269 269 268 267 266 266 266 266
290 291 292 291 291 289 287 288 288 287 286 284 283 283 281 276 275 276 277 276 276 276 275 275 276 275 274 274 274 273 273 274 273 272 272 271 271 270 269 270 270 270 270 269 269 269 268 269 267 266 266 265 266 267
289 287 289 290 290 287 286 287 287 288 287 286 282 280 278 280 278 273 274 274 273 273 274 273 273 273 273 273 273 273 272 272 271 271 271 270 270 270 270 270 269 269 268 269 269 268 267 268 267 266 266 266 266 266
288 288 287 288 288 288 286 286 286 285 284 283 280 279 278 279 276 272 273 273 273 273 272 273 273 273 272 272 272 271 271 271 271 271 271 270 270 270 270 269 269 268 268 268 268 267 267 267 267 267 266 266 266 266

GFSWCAN_850_thetae_012.txt.gz
Theta_e
297 297 297 296 295 297 297 296 297 299 300 301 301 301 302 304 307 309 315 320 322 321 320 320 318 317 319 325 330 325 325 325 330 330 330 333 330 329 326 321 322 323 327 324 327 323 322 315 315 319 322 317 315 315
297 297 296 295 297 297 295 295 298 300 300 301 302 301 304 305 309 311 312 318 320 324 323 321 320 319 318 319 325 324 325 325 327 330 329 333 322 319 324 327 321 325 324 328 323 324 318 315 315 315 315 315 315 315
296 296 296 296 294 295 297 299 300 301 302 302 302 304 305 307 311 312 317 323 325 324 323 318 322 320 318 319 325 326 325 325 325 326 331 332 321 327 322 330 324 321 319 323 321 316 316 315 315 315 315 315 316 316
296 295 296 297 298 300 300 300 301 302 303 303 305 306 310 311 312 312 313 322 324 321 322 324 321 321 318 318 322 325 327 325 326 327 329 319 324 324 329 328 330 322 318 318 318 317 316 315 317 316 316 316 317 317
297 296 296 297 298 299 301 302 303 304 305 308 309 311 311 312 312 314 318 322 324 319 324 324 322 320 318 317 319 322 325 324 325 324 316 330 323 325 323 325 326 319 318 324 324 318 318 317 317 316 316 314 312 312
304 303 303 302 300 301 304 306 305 305 309 310 310 311 311 312 312 314 317 319 321 323 323 326 321 321 321 321 323 323 324 323 324 326 324 321 319 323 324 325 317 318 317 317 318 317 317 316 312 310 310 309 308 307
308 307 307 308 308 307 307 307 310 311 310 310 311 312 313 313 314 319 318 319 319 319 320 323 321 320 322 323 323 323 323 324 324 324 325 321 319 321 317 325 317 314 314 314 313 316 314 312 309 309 306 304 305 304
310 312 313 313 315 313 311 309 309 310 311 312 312 313 313 314 316 317 316 317 318 319 319 322 318 320 320 323 322 322 324 322 320 319 320 323 318 322 325 316 314 312 313 312 311 310 309 308 307 304 303 303 301 300
311 310 313 315 317 316 315 314 313 313 313 313 314 315 314 315 317 316 316 317 317 317 317 320 318 321 319 316 317 320 322 323 317 316 322 320 315 321 317 314 312 311 313 311 309 308 307 305 303 302 300 300 300 299
310 311 310 310 315 317 318 317 317 315 315 315 315 316 316 316 315 314 312 314 314 313 312 316 316 319 317 312 313 315 314 320 318 316 315 320 317 310 308 309 309 309 311 309 307 305 305 303 301 300 300 299 299 299
310 310 310 310 310 314 314 315 315 315 315 316 315 314 313 313 314 314 313 316 313 314 313 312 313 317 315 316 312 312 316 316 317 317 317 315 314 309 307 307 306 307 307 307 305 304 302 300 300 299 299 298 297 294
311 310 310 309 309 310 314 315 316 316 315 315 314 312 312 312 312 311 312 312 315 315 307 310 312 312 312 315 312 312 312 314 317 312 316 315 310 306 304 304 305 304 304 302 301 300 300 299 299 298 295 292 292 292
311 311 310 311 310 310 311 312 311 312 313 313 312 310 312 308 312 313 312 313 311 305 306 308 308 310 310 312 310 311 312 313 312 312 313 311 305 303 303 304 303 302 302 301 298 297 296 295 293 292 292 293 293 292
310 311 311 310 310 311 311 311 311 311 311 310 308 307 308 308 305 304 304 304 301 303 307 307 307 309 308 306 308 313 306 310 313 314 313 304 302 301 301 302 302 300 298 296 295 293 292 292 293 292 292 292 292 291
309 310 310 310 310 311 311 311 311 312 310 303 304 305 303 298 299 299 299 300 301 304 306 309 309 309 307 307 307 307 309 313 311 312 306 301 300 300 301 301 299 297 296 296 294 293 293 293 293 292 292 292 291 290
307 308 309 310 310 311 311 311 311 311 302 299 298 301 300 301 300 299 299 300 302 304 306 307 308 309 306 308 311 311 313 313 307 302 299 300 300 300 301 299 297 296 298 297 294 293 294 294 293 292 291 290 290 289
306 302 302 304 305 308 310 311 307 300 299 299 298 298 299 298 297 297 298 300 302 303 303 305 308 305 304 308 307 305 306 303 299 299 299 300 300 299 298 298 297 297 297 295 294 294 294 293 292 290 288 288 286 286
300 299 299 300 300 302 303 300 299 300 298 298 298 297 297 298 298 298 299 300 302 301 302 303 302 306 307 308 306 301 298 298 299 299 299 299 299 298 298 297 297 296 295 294 294 294 293 290 288 287 286 285 284 284
298 300 300 298 297 298 298 299 299 298 297 297 297 298 298 298 297 298 300 301 301 302 302 304 304 303 301 297 297 298 298 298 298 298 298 298 298 298 297 297 296 294 293 292 291 289 289 288 286 285 284 282 282 281
292 294 294 295 295 297 297 297 298 298 298 297 297 297 297 297 297 297 299 301 301 301 299 298 296 293 293 292 293 294 297 298 298 296 296 296 296 295 294 293 291 290 290 289 288 287 286 285 284 282 281 280 280 279
293 292 293 294 294 296 297 298 297 297 297 297 297 298 297 296 296 298 298 298 296 295 296 294 293 292 291 292 293 294 295 297 297 296 295 293 292 292 291 291 289 288 287 286 285 284 283 282 281 279 279 279 278 278
291 292 292 292 293 294 295 296 297 297 297 297 297 297 297 297 297 296 297 294 293 291 292 291 290 291 288 289 291 292 292 293 294 295 293 291 289 288 287 286 286 285 284 283 282 281 280 280 279 278 277 277 276 277
291 292 292 292 292 293 293 294 294 294 296 296 297 297 296 295 295 297 295 292 290 289 289 289 288 288 287 286 287 288 289 290 290 289 288 288 287 286 286 285 283 282 281 280 279 279 278 277 277 276 276 275 275 275
292 292 292 293 294 293 293 293 295 295 295 295 296 296 294 294 295 295 293 290 288 288 288 288 289 288 287 284 283 283 284 285 285 284 284 285 284 283 283 283 282 280 279 278 278 277 277 277 276 275 274 274 274 273
293 292 294 294 294 295 295 294 295 295 294 295 296 295 294 294 296 294 292 289 286 285 286 287 286 286 286 284 283 284 284 284 284 283 282 281 281 281 280 279 278 278 277 278 278 277 275 274 273 273 272 272 272 272
293 291 293 293 293 294 294 294 294 293 294 295 293 293 293 295 295 293 289 286 284 283 282 284 286 284 282 282 281 282 282 281 281 282 281 281 280 279 278 278 278 278 277 276 275 274 274 273 272 271 271 271 271 271
292 292 292 291 292 293 293 293 293 294 295 295 295 294 295 296 293 288 284 282 282 281 282 282 282 281 280 279 281 282 282 281 281 280 279 278 277 277 277 276 276 275 274 274 273 273 272 271 270 270 270 270 270 270
291 291 292 292 292 293 293 294 295 295 294 292 294 294 293 290 287 283 281 280 280 281 281 282 282 281 281 279 278 278 278 278 277 277 277 277 277 277 276 275 274 274 273 271 271 271 270 270 270 269 268 268 268 268
292 291 292 291 292 292 292 293 293 291 290 291 292 291 286 280 278 279 279 279 280 280 279 279 278 278 278 278 278 277 276 276 276 275 276 276 276 274 274 272 271 271 270 271 269 269 268 268 268 267 268 267 267 267
290 291 292 292 292 292 291 289 290 288 287 286 285 282 280 277 276 277 277 278 278 278 277 277 277 277 276 276 275 275 275 275 274 274 273 272 272 271 271 270 270 270 269 269 267 267 268 267 268 267 268 267 267 266
290 291 292 292 292 289 288 289 288 287 286 284 284 283 280 276 275 276 276 275 276 276 276 275 275 274 274 274 274 274 273 273 273 273 272 272 271 271 269 269 268 268 267 267 266 267 266 266 266 266 266 266 265 265
289 288 289 290 291 288 287 287 287 288 288 286 283 281 280 281 278 273 274 274 273 273 273 273 273 273 273 273 272 272 272 272 272 272 271 271 271 270 270 270 269 267 266 266 266 265 265 265 265 265 265 265 265 265
289 288 288 288 289 289 287 287 288 287 285 284 281 281 279 278 276 273 272 272 273 272 272 273 273 273 273 272 272 271 271 270 270 270 270 270 270 270 269 269 268 268 268 268 267 266 265 265 265 264 265 265 264 265

GFSWCAN_850_thetae_015.txt.gz
Theta_e
297 295 294 294 296 296 296 298 299 300 300 300 301 302 301 301 303 305 306 309 314 320 321 322 320 321 321 324 319 323 321 321 317 317 315 314 314 314 316 320 316 314 314 311 314 314 316 315 314 311 315 315 315 314
296 296 296 296 297 296 296 297 298 299 300 300 301 301 301 302 304 304 306 310 312 312 321 323 321 321 321 324 324 322 320 323 324 318 316 312 312 311 314 314 319 317 317 314 315 313 315 314 315 316 315 314 315 315
297 297 297 297 296 295 297 298 297 298 299 300 300 301 301 303 304 305 307 309 311 315 317 322 322 321 323 323 322 323 325 323 325 324 318 314 315 307 315 313 319 319 318 314 313 315 315 314 314 315 315 316 317 317
297 297 297 295 295 297 297 296 296 298 300 301 301 301 302 304 305 306 306 308 313 316 315 322 322 319 325 325 322 323 324 325 325 322 317 311 315 321 311 315 313 317 315 316 315 315 317 317 317 317 317 317 315 316
296 296 296 297 297 296 294 296 298 300 300 300 301 302 301 304 307 306 305 308 312 314 318 322 321 320 319 323 324 325 325 325 325 316 306 313 317 315 311 310 310 317 315 310 308 317 315 314 314 316 315 312 309 311
296 296 295 294 294 295 298 300 300 300 301 302 302 302 304 305 305 306 309 312 310 309 320 315 320 321 318 318 318 321 324 324 324 322 319 320 320 316 309 308 316 316 317 318 317 317 314 311 311 311 311 308 307 308
297 296 295 296 299 299 300 300 300 303 304 302 302 304 305 308 309 312 316 318 320 320 321 313 311 321 321 322 322 323 323 325 324 324 323 317 318 318 305 310 314 315 314 314 315 313 310 310 306 308 308 307 306 304
303 301 300 299 299 299 300 302 303 304 304 305 305 307 310 311 312 311 315 318 319 319 319 310 313 317 322 322 321 323 323 321 320 318 321 314 318 317 311 313 313 313 312 311 312 314 309 306 306 305 304 302 301 300
307 308 308 306 305 303 304 303 303 304 307 308 310 310 310 309 312 313 315 316 316 316 313 312 313 316 320 316 319 321 322 309 316 305 310 312 303 313 314 311 311 313 312 309 308 307 306 305 303 301 300 299 299 299
312 313 310 309 309 308 309 308 309 309 310 312 312 314 315 315 314 314 314 314 313 313 312 307 314 313 315 312 312 311 314 307 307 306 315 309 304 309 310 310 310 311 309 308 306 303 303 301 300 300 299 299 299 298
314 315 314 311 310 309 309 311 311 311 312 315 315 314 314 314 313 312 312 311 312 306 311 311 313 311 315 310 309 311 307 306 311 309 307 304 306 307 308 308 308 308 308 307 306 304 303 301 299 299 298 298 297 294
313 313 316 316 315 314 312 312 313 314 315 315 314 312 313 312 310 307 306 306 308 309 307 308 311 312 313 313 306 310 307 305 311 309 310 311 306 306 306 306 305 306 305 304 304 301 300 299 299 298 296 293 292 292
310 312 313 314 314 314 314 315 315 313 314 314 314 310 310 306 308 306 308 307 307 304 306 308 306 310 310 311 308 308 314 310 309 309 310 305 304 305 305 304 303 302 301 300 300 299 299 298 296 293 292 292 292 292
310 310 310 310 312 313 312 312 313 313 313 309 306 304 305 306 302 302 302 302 301 303 307 307 307 306 308 305 304 309 305 306 311 310 309 303 303 304 303 302 302 299 299 299 298 296 293 292 292 292 292 292 291 291
310 310 310 310 311 311 311 311 312 312 309 303 302 303 301 298 299 299 299 301 301 304 307 308 307 307 303 305 304 305 307 309 308 307 303 302 302 303 301 300 298 297 296 294 292 293 293 293 292 291 291 291 290 289
309 310 310 310 311 311 311 311 312 311 301 299 298 300 300 301 300 299 300 301 303 304 306 307 304 306 305 305 308 308 309 307 303 299 300 301 301 301 300 297 297 297 296 293 293 293 293 293 292 291 290 289 288 287
307 302 303 308 311 311 311 311 307 299 299 298 298 298 298 298 297 298 299 301 302 302 302 302 305 303 301 306 304 302 302 300 298 298 300 300 301 300 299 298 297 298 297 294 293 293 293 293 290 289 288 286 286 285
300 300 301 302 306 308 307 301 299 298 297 297 297 297 297 298 298 299 300 300 302 301 301 301 302 304 303 304 302 299 297 298 298 299 299 299 298 298 297 296 297 297 297 295 293 293 290 288 287 287 286 285 284 284
298 299 297 297 299 300 299 299 299 297 297 297 297 297 297 297 298 300 301 301 302 301 301 300 297 297 296 293 293 294 297 298 298 298 299 299 298 298 297 297 297 296 294 292 291 289 288 288 288 286 285 283 282 281
293 294 295 295 296 298 298 298 298 298 297 297 297 297 297 297 298 296 296 297 297 296 296 295 293 292 291 290 292 292 296 297 298 297 296 296 297 296 295 294 293 291 291 289 288 287 286 286 285 283 281 281 280 279
293 293 294 295 296 297 297 297 298 297 297 297 296 296 296 296 296 295 293 293 293 293 293 292 290 289 289 289 291 292 294 296 296 296 294 293 293 293 292 290 289 288 287 286 286 285 285 283 281 279 279 279 278 278
292 293 292 292 293 294 295 296 297 297 296 297 297 296 296 296 296 296 291 291 290 290 289 289 288 288 286 286 287 289 290 292 294 294 292 290 289 288 287 287 287 286 286 284 283 282 281 280 279 278 277 278 276 276
293 293 292 292 292 292 292 294 294 294 291 296 297 295 295 295 295 295 292 289 288 288 289 288 287 287 286 285 285 286 287 288 288 288 288 287 287 286 286 285 284 284 283 282 281 279 278 278 277 277 276 275 275 275
293 293 293 294 293 292 294 294 295 295 293 294 293 291 293 293 295 292 290 288 286 287 287 287 287 286 285 285 284 283 284 285 285 284 284 285 284 283 283 283 282 281 280 279 277 277 277 276 276 275 274 273 273 273
292 291 294 290 294 294 288 293 291 291 293 293 291 292 292 294 289 291 290 287 284 284 285 285 286 285 283 282 282 282 282 283 284 283 281 281 281 281 280 279 278 277 277 277 277 276 275 275 274 273 272 272 272 271
290 291 291 292 292 293 293 292 292 293 293 294 293 292 293 293 288 287 287 283 282 282 282 283 283 283 282 281 282 282 281 281 281 282 280 280 280 279 278 278 277 277 276 276 275 274 274 273 272 272 272 271 270 270
292 292 291 292 292 293 293 293 294 292 289 291 292 293 289 293 286 286 282 281 281 281 281 281 281 281 279 279 279 279 279 279 279 278 277 277 276 276 276 276 275 275 274 274 274 273 273 272 272 271 270 270 269 269
291 292 292 292 292 293 292 292 288 289 290 291 293 287 286 286 282 281 280 280 280 280 280 280 280 279 279 279 279 278 278 278 277 276 277 277 277 276 276 274 273 273 273 273 272 272 271 270 269 269 269 269 268 268
291 291 292 291 291 291 291 292 292 289 288 289 287 284 282 278 277 278 279 280 280 279 279 278 278 278 277 277 276 275 275 276 276 275 275 275 274 274 273 272 272 272 271 271 270 270 269 268 267 267 268 267 267 267
290 291 292 291 286 289 288 288 288 286 286 285 283 279 277 276 276 277 277 277 277 277 277 276 277 277 276 275 275 275 275 275 274 273 273 272 272 271 271 271 271 270 270 270 269 269 269 268 267 267 266 266 266 266
289 290 291 291 290 287 287 287 287 286 285 283 284 281 276 275 275 275 275 275 276 275 275 275 275 274 274 274 274 273 273 272 272 272 272 271 271 270 270 270 270 269 268 268 267 267 267 266 266 265 265 265 265 265
287 288 289 285 289 287 286 287 287 287 285 284 281 280 278 278 274 274 273 273 274 274 273 273 274 273 273 272 272 271 271 271 271 270 270 271 270 270 270 269 269 268 268 268 267 267 266 266 265 264 264 264 264 264
289 288 287 287 288 287 286 286 288 285 283 282 280 279 278 276 274 272 272 272 272 272 273 273 273 272 272 271 270 270 270 270 269 269 269 268 268 268 268 267 267 267 267 267 266 266 266 265 264 264 264 264 264 265

GFSWCAN_850_thetae_018.txt.gz
Theta_e
296 295 295 296 297 296 296 296 296 296 296 296 296 297 297 298 301 303 303 304 306 311 316 319 317 316 318 320 318 321 321 320 311 314 314 311 309 313 314 316 314 312 311 307 312 309 312 314 313 311 310 314 314 314
295 295 297 297 296 295 295 295 295 295 296 296 296 297 298 299 302 303 305 305 306 308 312 316 320 318 318 320 322 322 321 321 321 316 311 309 310 307 311 315 316 314 312 311 312 311 313 313 315 315 315 314 314 315
295 294 294 294 295 296 296 297 297 297 296 297 297 298 299 302 302 303 304 305 305 307 311 316 321 322 319 320 322 321 320 322 321 321 312 312 312 305 310 309 314 316 316 313 313 314 315 313 315 314 314 315 316 316
295 294 295 296 296 296 296 299 299 300 300 300 299 300 302 302 302 303 305 307 309 312 312 317 321 323 323 321 323 322 320 320 325 321 310 306 310 312 306 312 310 314 314 314 312 315 316 316 315 316 315 315 314 314
297 297 297 296 295 295 298 298 298 300 300 300 301 301 301 301 301 302 303 305 309 310 312 313 319 322 324 324 323 322 321 321 322 314 305 308 309 312 303 306 308 314 313 310 310 314 313 314 312 313 314 312 311 312
297 296 295 295 296 297 297 297 298 299 299 300 300 300 301 302 303 303 303 306 306 308 311 311 317 321 324 322 321 323 325 323 321 319 310 318 319 313 306 306 314 316 316 315 316 315 314 311 310 310 312 308 308 308
296 295 296 296 297 295 295 295 298 300 300 300 301 301 302 302 304 305 307 312 309 307 310 312 312 320 323 323 323 323 323 324 321 320 317 314 316 313 301 309 313 314 316 316 316 314 308 309 306 307 308 306 306 304
296 296 296 296 295 295 297 299 300 300 300 300 301 302 303 304 306 307 310 314 313 311 312 311 312 315 320 320 320 323 321 320 318 317 318 308 316 308 309 312 312 313 313 312 312 313 312 307 306 305 304 303 301 299
296 295 295 294 294 296 299 300 300 301 301 301 302 304 305 307 308 308 312 310 311 314 311 309 313 315 316 315 318 319 318 310 313 306 308 310 306 309 312 311 310 310 312 306 309 309 306 306 303 301 301 300 300 298
298 296 295 297 297 299 299 300 302 303 302 302 304 307 309 309 308 307 307 313 312 313 312 307 312 312 314 311 308 308 310 306 306 305 312 306 301 308 310 312 311 310 309 308 305 303 303 301 300 299 299 299 299 298
306 304 302 301 301 300 301 303 304 305 305 306 311 312 310 311 307 312 310 309 310 305 308 310 311 311 314 309 307 309 306 304 305 305 306 308 305 305 307 310 309 309 308 308 308 305 304 304 301 300 299 298 298 296
309 308 306 305 305 304 305 304 305 306 310 312 312 309 310 311 308 306 304 305 306 308 306 307 310 313 313 312 308 307 307 304 312 306 304 305 304 305 306 307 306 306 306 306 305 303 302 300 300 299 298 297 294 292
310 310 309 309 310 310 310 311 312 314 313 311 311 310 308 304 306 304 307 306 306 302 305 308 306 310 310 311 305 305 309 309 304 306 308 303 305 304 304 305 304 305 305 304 302 301 300 299 298 297 293 292 292 291
313 311 310 309 310 311 312 311 312 310 310 308 304 303 304 304 301 301 302 302 301 302 306 308 306 305 307 305 303 311 305 305 309 308 307 303 304 303 302 302 303 302 302 300 300 299 299 297 294 292 292 291 291 290
310 312 312 312 312 312 312 313 311 312 309 301 301 301 300 298 299 299 300 300 302 305 307 306 305 306 303 305 303 305 307 309 307 307 302 302 303 302 300 301 301 300 299 299 298 296 294 292 292 292 292 291 290 289
310 311 310 310 311 311 312 311 311 307 300 299 298 301 299 300 299 298 299 300 301 306 306 305 303 304 304 305 306 306 307 306 303 299 300 302 301 300 300 299 298 297 295 295 293 292 292 292 291 291 290 289 288 287
310 309 309 310 310 311 311 311 304 299 297 297 297 297 298 298 298 298 299 300 302 302 302 299 303 303 301 303 302 300 301 299 298 299 300 300 299 298 298 297 297 296 295 293 293 292 292 291 290 289 289 287 287 286
305 305 307 309 311 310 309 302 299 297 297 297 297 297 297 296 297 297 299 300 302 301 301 300 301 299 297 300 298 297 297 297 298 299 299 299 300 298 298 297 297 296 293 293 292 291 291 289 288 287 287 286 285 284
297 297 298 303 306 304 300 299 298 297 296 297 297 297 297 296 295 297 299 298 298 298 297 295 294 294 293 292 291 292 295 297 297 298 298 298 298 298 297 297 296 295 293 292 291 289 288 287 286 285 284 283 283 281
295 295 295 298 301 299 298 297 298 297 297 297 296 296 295 294 293 292 293 294 294 293 293 292 290 289 289 288 289 290 294 295 297 297 295 296 297 296 296 295 294 292 291 290 288 287 286 285 285 283 281 280 279 279
294 294 297 299 298 297 297 297 297 297 297 296 296 296 296 294 291 290 290 291 291 291 290 289 287 286 287 288 289 290 293 295 295 294 291 291 291 292 292 291 290 289 288 286 286 285 285 284 282 280 279 278 278 278
293 293 293 293 295 295 295 295 296 296 296 296 296 295 294 294 294 291 288 289 289 288 287 287 286 286 286 286 287 288 289 291 292 291 291 290 289 288 288 287 288 286 285 284 283 282 282 280 279 278 278 277 277 276
293 293 293 293 292 292 292 294 294 295 289 294 295 292 293 294 294 291 288 287 286 286 287 286 285 284 284 284 285 286 287 288 288 287 288 287 286 285 285 284 284 283 283 281 281 281 280 279 278 277 277 276 275 274
294 293 293 294 293 290 293 294 294 293 293 289 289 292 290 293 292 289 287 285 283 285 286 285 284 284 284 284 284 283 283 285 284 284 283 284 284 282 282 282 281 281 280 279 278 277 277 277 276 275 274 273 273 273
292 290 292 285 292 291 286 291 291 292 291 285 288 290 292 293 287 285 285 283 282 283 283 283 284 283 282 281 281 282 282 282 283 283 281 281 281 281 280 280 279 278 277 276 276 275 274 274 273 273 272 272 271 271
290 291 289 291 291 290 291 290 291 291 290 290 292 292 292 284 280 282 283 281 280 280 281 282 282 282 281 280 281 281 280 280 280 281 279 279 279 278 278 277 276 276 275 275 274 274 273 272 272 271 271 271 271 270
289 288 292 292 293 292 291 293 292 286 283 287 288 289 287 280 280 282 281 280 280 280 280 280 280 280 279 278 278 278 278 277 278 277 277 276 276 276 275 275 274 273 273 272 272 272 272 272 272 271 271 270 269 268
291 292 289 291 291 292 284 282 280 284 284 289 288 281 282 277 278 279 279 279 279 279 279 278 278 278 278 278 277 277 277 277 276 276 276 276 276 275 274 273 272 272 272 271 271 271 270 270 269 269 268 268 268 267
290 291 291 288 290 289 287 287 287 287 286 287 280 278 278 276 276 277 278 278 278 278 278 277 276 276 276 276 275 274 274 275 274 274 273 273 272 272 272 271 271 271 270 270 269 269 268 267 267 267 267 266 266 266
289 290 291 288 284 287 287 287 285 284 284 282 278 275 275 274 275 276 277 277 277 277 276 275 275 275 275 275 275 275 274 273 273 272 272 271 271 271 271 270 270 270 269 269 269 269 268 268 267 267 266 266 265 265
288 289 290 288 286 286 286 287 285 284 283 281 280 276 274 274 274 274 274 274 274 274 274 274 273 273 273 273 273 272 272 272 271 271 271 270 270 269 269 269 269 268 268 268 268 267 267 267 267 266 265 265 264 264
287 288 288 281 287 286 286 286 286 283 282 281 278 276 276 275 273 272 271 272 273 273 273 273 273 273 273 272 272 271 270 270 270 269 269 269 269 268 268 267 267 267 267 267 266 266 266 266 266 265 264 264 263 263
287 286 286 286 286 286 285 285 285 282 281 280 279 277 275 274 272 271 271 272 272 272 272 272 272 272 271 271 270 270 269 269 268 268 268 268 268 268 267 267 267 266 266 266 265 265 264 264 264 264 264 264 263 263

GFSWCAN_850_thetae_021.txt.gz
Theta_e
301 301 300 299 299 299 299 298 297 295 295 295 295 294 294 294 297 298 300 305 306 306 308 313 316 316 314 314 314 315 321 318 308 314 312 309 309 312 311 313 312 314 312 308 305 306 313 311 312 310 309 312 314 314
298 298 298 298 298 297 295 295 294 294 295 295 295 294 295 297 297 300 301 304 305 307 307 310 314 315 315 315 315 319 318 319 318 315 311 307 308 304 311 314 314 313 312 312 311 311 310 313 312 313 315 315 314 314
295 296 296 295 295 295 295 295 294 295 295 296 298 298 298 299 299 300 301 303 304 304 305 310 317 317 318 316 314 320 319 321 320 319 312 309 312 305 311 309 313 314 313 312 311 313 313 313 315 314 314 314 314 314
297 296 296 296 296 296 296 296 296 296 297 296 296 297 297 298 298 299 302 304 304 306 309 314 318 319 321 319 317 316 321 322 321 320 311 306 311 309 305 311 309 312 313 312 311 314 314 314 314 314 313 314 315 315
294 294 295 295 296 296 296 295 295 295 296 296 296 296 297 298 299 300 300 304 307 305 310 312 315 319 322 320 317 319 321 321 319 313 307 312 308 311 300 305 305 312 312 310 310 314 312 313 313 313 314 314 314 314
296 296 296 296 297 298 299 299 298 297 296 296 296 297 298 300 301 302 303 303 303 307 307 309 313 317 321 322 318 319 321 321 320 315 309 315 317 313 309 307 312 315 315 316 313 315 314 313 311 311 312 311 310 309
296 296 295 296 298 298 298 299 299 300 299 298 298 299 301 302 301 302 303 305 303 305 307 309 309 318 320 322 322 322 321 321 320 318 311 312 314 311 299 309 313 315 316 315 315 314 308 309 308 308 309 307 306 305
295 295 297 297 296 295 298 300 300 300 301 301 300 300 302 301 302 303 307 311 309 306 308 308 309 313 318 318 318 319 320 317 316 316 315 305 311 304 309 310 311 312 313 311 311 313 312 309 307 305 305 304 303 301
295 296 296 295 294 295 298 300 300 300 301 301 301 301 302 302 303 304 306 308 310 310 309 306 309 314 316 312 315 315 317 310 312 308 308 314 307 311 309 310 309 310 312 307 308 309 307 307 304 302 302 301 301 298
296 296 295 295 298 299 300 300 301 301 301 302 302 303 304 304 304 304 308 307 309 310 312 306 311 311 314 310 308 307 308 306 311 307 309 307 307 306 308 310 310 310 310 309 305 301 302 301 301 300 300 300 300 298
296 295 294 294 298 299 300 300 300 301 302 302 304 307 307 306 307 306 302 306 308 305 307 308 309 310 314 310 308 307 307 302 307 308 308 308 307 304 307 309 310 310 310 310 310 308 306 306 302 300 299 299 298 297
295 295 295 295 298 299 300 301 301 301 303 307 309 307 305 306 304 303 303 304 305 307 305 306 309 311 311 312 306 306 307 303 309 305 304 310 303 304 305 307 307 307 307 307 307 305 304 303 302 300 298 297 297 295
298 296 297 297 296 299 302 302 302 302 307 310 309 306 304 301 305 306 308 306 306 302 304 307 305 309 310 310 303 303 305 303 304 302 306 302 304 303 303 304 304 304 305 305 304 303 302 301 299 299 297 296 293 291
304 303 301 301 301 303 303 303 306 308 309 307 305 302 303 302 301 301 302 302 300 302 305 307 304 304 306 304 303 310 304 305 307 307 305 303 302 302 302 304 305 303 303 303 301 300 299 298 297 296 293 292 291 290
307 306 305 305 305 305 306 307 307 307 304 301 300 301 300 299 299 299 300 300 301 304 307 306 305 305 303 304 303 305 308 308 306 302 302 302 301 301 301 301 303 301 300 300 299 298 297 296 293 292 291 291 290 289
309 310 309 307 308 308 307 304 303 301 299 299 297 299 298 299 299 298 299 300 302 304 305 305 302 304 304 304 306 304 307 305 302 299 299 301 301 301 301 300 300 300 299 298 298 296 294 292 292 291 290 289 288 287
309 305 306 305 306 306 305 302 299 298 297 297 297 296 297 298 298 297 298 299 302 303 302 296 302 302 301 301 301 299 298 297 297 298 299 299 300 300 299 299 298 298 296 295 294 292 292 292 291 290 288 286 286 286
308 306 306 309 310 310 307 300 298 297 297 296 296 296 294 293 294 295 296 299 301 300 299 299 297 295 293 295 294 293 295 296 297 298 298 297 297 297 297 297 296 295 294 292 292 291 291 290 289 287 287 286 285 284
299 302 308 310 310 307 299 298 298 296 296 296 295 295 293 292 292 293 294 295 295 295 294 292 292 292 291 290 290 289 291 294 296 296 296 296 296 296 296 296 295 293 292 292 291 290 289 288 287 286 285 284 284 283
295 299 302 304 306 300 298 297 297 297 296 296 294 291 291 290 290 290 290 290 290 290 290 289 288 287 287 286 287 287 291 294 295 296 294 294 294 295 294 294 293 292 291 290 289 287 285 285 284 283 283 281 280 279
299 299 300 303 299 297 296 297 297 296 296 296 296 295 293 290 288 288 288 289 288 289 288 286 285 284 285 286 287 288 291 294 294 293 289 289 289 291 290 289 289 288 288 286 285 284 284 284 282 282 282 281 280 278
294 294 295 296 295 294 294 294 296 296 296 296 295 294 294 293 290 288 287 286 286 286 285 284 283 283 284 285 286 287 287 289 289 289 288 288 288 288 287 286 287 285 284 283 283 282 282 281 281 280 280 278 277 276
294 293 292 292 292 293 292 294 294 293 288 292 292 290 290 292 290 287 286 284 283 283 283 283 283 283 283 284 285 286 286 287 287 286 286 286 285 284 284 284 283 283 282 280 280 280 280 279 278 277 276 275 275 274
294 292 292 292 293 287 292 292 292 292 293 285 287 291 290 291 288 285 283 282 281 282 283 282 283 283 283 283 283 282 282 283 283 283 282 283 283 281 281 280 280 280 279 277 277 276 276 276 275 275 274 274 273 273
292 289 291 282 291 289 282 283 285 286 284 281 290 289 288 290 280 280 281 280 279 280 281 281 282 281 280 280 280 280 280 281 281 281 279 279 279 279 279 278 277 277 275 275 275 274 274 274 273 273 272 272 271 271
286 291 288 290 288 287 284 283 283 284 280 283 287 291 288 277 277 279 281 279 279 279 279 280 280 280 279 279 279 279 279 278 279 280 278 278 277 277 276 275 275 274 274 274 273 273 273 272 272 271 271 271 270 269
285 285 291 291 292 291 287 289 288 283 282 288 283 278 279 276 277 281 280 279 278 278 278 278 279 279 278 277 277 277 277 277 278 277 276 276 276 275 275 274 273 273 272 272 272 272 271 271 270 270 269 269 268 268
290 290 285 289 289 289 279 278 278 281 281 286 282 275 273 273 275 277 277 277 278 278 278 278 277 277 277 277 277 276 276 276 275 275 275 274 274 273 272 272 271 271 271 270 270 269 269 269 268 268 268 268 267 267
289 290 290 284 286 286 286 283 285 285 284 284 275 275 275 274 275 276 277 277 277 277 277 276 276 275 275 275 274 274 273 273 273 273 273 273 272 272 271 271 270 270 270 270 269 269 268 267 267 267 266 266 265 265
288 289 287 283 280 283 285 284 283 282 281 278 275 273 273 273 274 275 275 276 276 275 275 274 274 274 274 274 274 274 273 272 272 272 271 271 270 270 270 269 269 269 269 268 268 268 267 267 267 266 266 266 265 265
287 289 287 286 285 286 283 283 282 281 279 276 276 274 273 273 273 272 273 272 273 273 273 273 273 273 273 273 273 272 272 271 271 270 269 269 268 268 268 268 268 267 267 267 267 266 266 266 266 266 265 265 264 264
287 286 287 279 285 285 284 285 282 281 280 277 275 274 274 274 272 272 271 271 272 273 273 273 272 273 272 272 271 271 270 269 269 269 269 268 268 267 267 267 267 267 266 266 266 265 265 265 264 264 264 264 264 264
286 285 285 285 285 285 285 285 282 280 280 278 277 276 274 273 271 271 271 271 272 272 272 272 272 271 270 270 269 269 268 268 268 268 268 267 267 267 267 267 267 266 266 266 266 265 265 265 264 264 264 264 264 264

GFSWCAN_850_thetae_024.txt.gz
Theta_e
301 301 300 300 299 300 299 302 302 301 300 300 299 298 298 298 298 297 298 299 302 304 305 309 311 311 310 310 309 311 313 313 308 312 312 311 308 311 311 313 314 316 313 308 305 307 317 310 311 311 310 310 312 314
301 300 301 301 301 300 302 300 300 300 300 299 298 298 298 298 298 298 297 297 303 303 307 308 311 312 310 311 311 313 313 315 315 314 309 306 310 303 310 313 312 316 313 312 312 313 311 311 311 312 312 312 312 315
299 300 300 300 300 300 300 299 299 299 298 297 297 297 297 297 298 297 296 298 299 304 304 305 308 314 314 313 312 312 314 318 318 318 310 309 310 305 313 310 312 311 309 310 311 311 309 313 313 313 313 313 313 314
296 296 297 298 298 298 298 298 298 298 297 297 297 297 296 296 296 296 296 298 302 305 305 308 312 315 317 316 315 314 316 315 320 317 310 306 309 309 308 311 309 310 311 311 309 313 313 313 313 313 313 313 314 313
296 296 296 295 295 295 296 296 295 295 295 295 296 295 294 294 296 297 298 300 302 305 306 307 308 313 318 319 318 316 314 317 319 313 305 309 307 309 303 307 304 310 311 311 312 313 313 312 314 313 313 313 313 313
295 296 296 296 296 295 294 295 295 295 295 296 296 295 296 297 298 299 300 302 303 303 304 306 311 313 315 319 319 319 316 316 317 315 309 313 315 314 311 311 312 315 314 316 313 315 314 313 313 312 312 312 312 313
296 298 298 298 296 296 296 296 296 297 297 297 297 298 299 298 298 300 301 303 304 304 304 305 306 313 316 318 319 318 319 319 319 316 311 311 312 312 307 315 313 315 314 314 315 314 309 310 310 310 311 310 309 308
295 297 298 298 299 298 297 296 295 296 296 296 296 297 298 298 300 303 303 303 304 303 303 306 309 310 314 315 314 318 318 318 315 313 311 307 309 304 308 309 311 312 312 311 311 313 314 311 308 308 308 307 306 304
297 297 296 297 299 299 300 300 299 296 296 296 297 298 299 301 302 302 302 305 306 304 304 306 309 309 312 311 312 314 316 308 312 307 306 310 307 312 310 309 309 307 310 309 309 311 309 309 306 305 305 304 305 302
296 295 294 296 300 300 300 300 298 297 297 299 298 300 301 301 301 302 307 303 306 309 310 305 309 310 312 311 309 307 308 308 312 307 309 307 308 308 309 310 311 309 309 308 306 301 302 301 304 303 304 303 304 301
295 294 296 299 300 300 300 300 300 300 300 301 303 305 302 303 303 303 303 303 305 305 307 308 308 309 312 309 308 307 305 303 311 309 312 310 309 305 307 308 310 312 309 309 311 309 306 307 304 302 300 301 300 298
295 296 299 299 300 300 301 301 301 302 301 304 305 304 305 304 303 303 303 302 305 307 304 306 309 310 311 311 308 305 306 304 312 304 309 311 304 302 305 306 307 308 307 308 308 307 305 304 303 302 300 299 298 297
295 295 298 300 300 300 301 301 302 302 305 307 306 306 305 300 304 304 308 306 306 301 303 306 306 308 309 309 303 306 308 309 304 308 308 303 302 301 303 304 304 305 305 305 304 304 304 302 301 300 297 295 295 293
295 295 297 299 299 300 301 301 301 300 302 304 302 301 302 302 301 300 301 302 300 301 302 305 304 303 305 304 302 310 304 305 307 306 305 303 301 301 301 302 303 303 303 303 302 301 301 300 298 297 296 294 294 292
297 296 297 297 299 301 300 300 300 302 301 299 300 301 300 299 298 298 299 300 301 302 304 304 304 305 303 305 303 306 309 307 305 304 301 300 300 301 300 301 301 301 301 300 300 299 297 296 295 293 293 292 291 290
301 301 300 299 301 302 303 301 301 299 299 297 296 298 298 299 298 297 297 299 301 303 304 304 303 305 304 303 303 301 305 302 300 298 297 299 299 299 298 298 298 299 299 298 297 296 295 295 294 292 291 289 288 287
305 304 304 302 301 300 300 300 298 297 297 297 296 293 295 295 295 294 294 295 301 302 301 300 300 298 299 299 298 296 297 297 296 296 296 297 298 297 298 298 298 297 297 296 295 294 293 292 291 290 288 286 286 285
307 306 306 306 303 300 298 298 297 297 296 295 295 293 291 290 290 290 293 295 299 299 295 295 294 292 292 293 292 290 289 291 293 294 294 295 295 295 296 296 296 296 295 294 293 292 292 290 288 287 286 285 285 284
305 303 303 302 302 300 298 298 297 295 293 292 291 291 290 289 289 289 290 292 292 293 291 290 288 289 288 287 287 287 287 289 291 291 292 294 294 294 294 294 293 293 292 291 291 290 288 288 287 285 284 283 284 283
299 300 302 301 300 299 297 297 297 296 296 294 291 288 288 287 287 287 288 288 288 288 287 287 286 284 284 283 284 284 287 292 291 290 289 290 291 292 291 291 290 289 289 288 287 286 285 285 284 283 283 283 282 281
300 299 299 301 298 297 296 297 296 296 296 294 294 292 290 287 286 285 285 286 286 286 285 283 283 282 282 283 284 285 287 290 288 287 285 285 287 287 287 287 287 287 286 285 285 284 283 282 281 281 281 281 280 280
298 298 297 296 294 294 294 294 296 295 295 294 293 293 292 289 287 285 284 283 283 283 282 282 281 282 282 283 284 285 285 286 286 286 286 286 286 285 284 284 285 283 283 281 281 281 280 280 280 280 280 279 278 277
293 293 292 293 293 293 292 293 293 292 288 289 291 289 288 287 287 284 283 281 280 280 281 281 281 282 282 282 284 284 284 285 284 283 283 283 282 282 282 282 281 281 280 279 279 279 279 278 278 277 276 275 275 274
293 292 291 291 291 285 291 291 292 291 291 285 289 288 287 288 285 282 280 280 279 280 281 281 282 282 282 282 281 281 281 282 282 281 280 281 281 279 279 279 278 278 277 276 276 276 275 275 275 274 274 273 273 272
292 289 290 282 290 286 280 279 281 283 280 283 285 286 286 286 277 277 279 279 278 278 279 280 280 280 279 279 279 279 280 280 281 281 278 278 278 278 277 277 276 276 275 274 275 274 274 273 273 273 272 272 271 271
286 290 288 287 286 285 280 281 281 282 277 282 284 286 284 275 275 278 280 278 277 278 278 278 279 279 278 278 277 277 277 277 278 279 276 276 276 276 275 274 274 274 273 273 272 272 272 271 271 271 270 270 269 268
286 284 289 288 290 289 283 285 285 281 280 286 279 275 273 272 275 279 278 278 277 277 277 278 278 278 277 277 276 276 276 276 276 276 275 274 274 273 273 273 272 272 271 271 271 270 270 270 270 269 269 268 268 267
289 289 282 285 286 286 280 276 277 279 279 284 278 271 270 270 273 275 275 276 277 277 277 277 276 275 276 276 276 275 275 274 274 273 273 272 272 272 271 271 271 270 270 270 269 269 269 268 268 268 267 267 267 266
287 287 286 280 284 285 283 281 282 281 280 280 271 271 273 272 273 274 275 276 276 276 276 275 275 274 274 274 273 273 273 272 272 272 272 272 271 271 270 270 269 269 269 268 268 268 267 267 267 267 266 266 266 266
287 287 283 283 277 280 279 280 278 277 278 276 273 272 272 272 272 274 274 275 275 275 275 274 274 273 273 273 273 273 272 272 271 271 270 270 269 269 269 268 268 268 268 268 268 267 267 267 267 266 266 266 265 265
287 286 285 285 283 281 280 279 278 278 276 274 275 273 272 271 272 272 273 272 272 272 272 273 273 273 273 273 272 271 271 270 269 269 269 268 268 268 268 268 267 267 267 267 267 267 266 266 266 266 265 265 265 264
286 284 283 277 282 280 281 282 280 278 277 275 274 273 273 273 271 271 271 271 271 272 273 273 273 272 272 271 271 270 269 269 269 268 268 268 268 267 267 267 267 267 267 267 266 266 266 266 265 265 265 265 264 264
284 284 285 284 283 282 282 282 280 279 278 277 275 275 273 273 272 271 271 271 271 272 272 272 271 271 270 269 269 269 268 268 268 268 268 267 267 267 267 267 267 267 266 266 266 266 266 265 265 265 265 264 264 264

GFSWCAN_850_thetae_027.txt.gz
Theta_e
300 300 300 300 300 300 301 301 301 300 301 300 302 301 300 300 300 300 300 300 302 303 304 305 308 309 308 309 309 309 311 311 310 312 314 315 314 316 316 316 317 320 319 319 313 318 322 311 309 316 317 311 312 311
301 300 300 300 300 300 300 301 301 301 302 302 301 301 302 300 300 299 299 300 300 302 303 305 306 309 308 308 308 309 309 310 310 313 311 310 313 311 314 319 311 320 318 320 319 322 316 310 314 313 313 312 311 312
301 301 300 300 300 301 302 301 301 301 302 301 300 300 301 300 300 299 298 298 299 300 300 304 305 310 310 309 309 311 311 313 312 312 312 313 314 311 316 314 314 312 310 317 316 315 313 312 312 312 312 312 312 313
300 301 301 301 301 300 301 302 302 302 301 300 300 300 300 299 299 299 298 298 298 301 304 305 307 309 311 311 310 309 312 312 317 316 311 310 315 311 313 315 315 313 312 313 313 312 313 313 313 313 313 312 312 313
296 299 299 300 300 301 301 300 300 300 300 300 300 300 299 299 298 298 297 297 297 301 304 306 305 308 311 314 313 311 310 314 314 314 308 313 308 311 306 309 312 311 313 315 317 314 315 314 315 313 313 313 312 313
296 295 297 298 299 299 299 299 299 299 299 299 298 298 298 298 299 297 296 296 297 298 301 304 307 310 315 316 315 315 313 312 315 315 310 311 313 313 314 315 313 314 314 314 314 314 313 313 313 313 313 313 312 312
296 296 295 296 297 298 298 298 297 297 297 297 297 297 297 297 297 297 299 300 297 300 303 304 306 310 314 317 317 317 316 315 314 314 312 313 313 312 309 316 314 314 314 314 314 313 311 311 311 311 312 312 311 310
298 296 296 295 295 295 295 295 295 295 296 296 295 295 295 295 296 299 303 301 301 300 304 304 305 308 313 314 313 316 316 316 315 314 310 311 309 305 313 311 313 313 314 313 312 313 312 312 311 310 310 310 309 308
298 299 298 296 296 295 295 296 297 297 297 296 295 295 296 298 298 300 303 302 303 303 302 302 307 310 312 311 311 310 313 311 311 309 309 311 309 314 312 310 310 309 310 310 310 309 311 310 309 307 307 306 308 303
298 298 299 298 296 296 296 296 296 297 297 298 298 298 299 299 302 303 303 304 305 304 305 305 308 310 311 308 308 308 308 309 314 311 309 310 313 308 308 309 310 310 310 310 308 303 302 303 303 302 302 303 305 302
297 299 299 299 300 299 296 296 296 296 297 298 299 301 300 301 302 302 302 302 302 303 306 307 308 309 311 309 308 306 305 305 314 313 313 312 313 305 306 308 308 308 309 310 309 309 307 304 304 303 301 301 301 300
299 299 300 300 298 299 297 296 297 297 298 301 302 302 302 302 303 302 303 301 301 307 304 306 308 310 310 311 306 305 307 304 314 305 312 313 305 301 303 306 306 306 307 309 309 314 308 304 302 303 301 300 299 298
299 300 300 300 300 298 297 297 299 299 303 303 303 304 304 300 304 304 305 306 305 301 303 306 305 308 308 308 303 304 308 309 303 309 310 305 302 300 301 302 304 306 303 305 306 305 303 301 300 301 299 297 297 296
299 299 300 300 301 300 300 301 301 302 303 303 301 301 301 302 300 299 301 301 299 300 302 304 303 304 305 304 302 310 304 305 308 308 306 302 299 299 300 300 302 300 301 302 300 300 299 298 297 297 297 295 295 293
296 299 299 300 300 300 300 300 299 300 299 299 299 301 300 299 298 298 298 299 299 301 303 304 304 305 303 304 302 305 308 306 303 302 299 297 298 299 298 299 299 298 297 298 298 298 297 297 296 295 294 294 293 292
296 297 298 299 300 300 300 300 300 299 298 296 293 294 295 296 294 293 293 295 298 302 303 303 303 303 302 300 300 299 302 299 297 297 295 296 296 296 296 296 296 297 297 296 296 295 295 294 294 292 292 291 291 290
298 299 297 299 300 301 301 301 297 296 296 295 293 290 290 291 291 291 291 292 299 301 300 298 294 295 296 295 293 292 293 292 289 293 293 293 293 293 294 294 294 295 295 294 294 294 293 292 292 291 289 287 286 285
302 302 301 300 300 298 297 297 296 295 293 291 291 290 288 287 287 288 290 292 297 295 293 293 292 291 290 292 290 288 287 286 289 287 290 291 292 292 293 293 293 294 293 292 292 291 290 290 290 286 285 284 284 283
304 302 301 300 300 298 298 297 294 291 290 289 288 288 287 286 285 286 288 289 289 290 289 287 287 286 287 285 284 284 284 286 286 285 287 289 290 291 291 291 291 291 290 289 289 288 287 286 285 284 284 284 284 283
301 300 300 300 299 298 297 296 295 293 293 291 288 286 285 284 284 284 285 286 285 285 285 285 284 282 282 281 282 282 284 288 286 285 284 286 287 288 288 288 287 286 286 286 285 285 284 284 283 282 282 282 281 281
300 300 298 296 295 296 296 296 296 294 293 292 291 289 288 285 283 282 283 283 283 283 283 281 281 280 280 281 281 282 285 287 285 283 281 282 283 285 285 285 285 285 284 283 283 282 282 281 280 280 280 280 279 279
296 295 294 294 294 294 294 294 295 294 294 293 292 291 288 285 284 283 281 281 280 280 281 280 280 280 280 281 282 282 282 284 283 283 284 284 284 283 283 282 283 282 281 280 280 280 279 279 279 279 279 278 277 276
293 293 292 292 293 293 291 292 292 291 287 288 291 288 285 284 284 282 280 279 278 278 279 279 280 280 280 281 282 282 282 283 282 281 281 281 280 280 280 280 279 279 278 277 277 276 276 275 275 275 274 274 274 273
293 291 291 290 291 285 290 290 290 289 289 285 286 285 285 284 283 280 279 278 277 278 280 280 280 280 281 281 280 279 279 280 279 279 278 279 278 277 277 276 276 276 275 274 274 274 274 274 273 273 273 273 272 272
291 288 290 282 289 284 279 279 280 283 281 282 284 285 279 283 277 277 278 278 277 277 278 279 279 279 278 278 278 278 278 278 279 278 276 275 275 275 275 274 274 274 273 273 273 273 272 272 272 271 271 271 270 270
285 287 286 283 282 284 279 281 281 282 280 281 281 281 281 275 275 278 279 277 276 277 277 277 278 278 277 277 276 276 276 276 276 277 275 274 274 274 273 273 273 273 272 272 271 271 270 270 270 269 269 269 268 268
286 282 286 285 287 286 282 283 283 280 280 284 277 272 273 272 274 277 276 276 276 276 276 277 277 277 276 276 275 274 274 274 275 274 273 272 273 272 272 272 271 270 270 269 269 269 269 269 268 268 268 268 267 267
285 286 280 283 284 283 278 274 275 278 278 280 276 270 269 270 274 274 275 275 276 276 276 276 275 275 275 275 274 274 273 273 272 272 272 272 271 271 270 270 269 269 269 269 269 268 268 268 268 267 267 267 267 266
285 284 284 278 282 280 278 277 277 277 277 277 270 270 272 271 272 273 274 275 275 275 275 275 275 274 274 274 273 273 272 272 272 272 272 271 270 270 269 269 269 269 268 268 268 268 267 267 267 267 266 266 266 266
284 284 282 281 274 275 275 276 276 275 276 274 272 271 271 271 272 274 274 274 274 274 274 274 274 273 273 273 273 272 272 271 271 270 270 269 269 269 268 268 268 268 268 268 268 267 267 267 266 266 266 266 266 265
285 284 284 282 279 277 276 276 275 275 275 273 274 272 271 271 271 272 273 273 273 273 273 273 273 273 273 272 272 271 270 269 269 269 269 268 268 268 268 267 267 267 267 267 267 267 267 266 266 266 266 265 265 265
284 282 281 276 279 276 278 279 278 277 275 274 273 272 272 272 271 272 272 272 272 272 272 272 272 272 271 270 270 269 269 269 268 268 268 268 267 267 267 267 267 267 267 267 267 266 266 266 266 265 265 265 265 264
283 283 283 281 278 277 278 280 278 277 276 275 274 274 273 273 272 272 272 272 272 272 272 271 271 270 269 269 269 269 268 268 268 268 267 267 267 267 267 267 267 267 267 267 266 266 266 266 265 265 265 265 264 264